User: anonymous   Login
Location: Unspecified
(0.0000°N, 0.0000°E)
Time: 00:26:34
(UTC+02:00)
Language:

H-2A R/B - Orbit

View from above orbital plane
View from above orbital plane
View from above satellite
View from above satellite

Ground track
Ground track

The orbit data is extracted from the following two-line orbital elements,

1 26899U 01038B   16240.69162872 +.00000150 +00000-0 +29208-3 0  9990
2 26899 028.0144 184.6574 7104591 353.4761 000.6243 02.47211923129217
Epoch (UTC): 27 August 2016 16:35:56
Eccentricity: 0.7104591
inclination: 28.0144°
perigee height: 311 km
apogee height: 33140 km
right ascension of ascending node: 184.6574°
argument of perigee: 353.4761°
revolutions per day: 2.47211923
mean anomaly at epoch: 0.6243°
orbit number at epoch: 12921

The dashed part of the orbit path shows where the satellite is in the earth's shadow,  

DLR